This demonstration page uses our WeatherBlox Daily Observations layout. Learn more.

Left ArrowRight Arrow

38.80484, -77.04692

Hourly Observations for May 9, 2019

Temp ( °F °C ) Dew Point ( °F °C ) Humidity (%) Winds ( mph kmh ) Pressure ( in mb ) Visibility ( mi km ) Precip ( " mm )
12:52 am 00:52 Cloudy 63 17.2 54 12.2 73 73 ESE 8 13 30.21 1023 10 16 N/A
1:52 am 01:52 Cloudy 63 17.2 53 11.7 70 70 E 7 11 30.22 1023 10 16 N/A
2:52 am 02:52 Cloudy 62 16.7 54 12.2 75 75 ENE 5 7 30.21 1023 10 16 N/A
3:03 am 03:03 Cloudy 62 16.7 54 12.2 75 75 E 6 9 30.20 1023 10 16 N/A
3:52 am 03:52 Cloudy 62 16.7 55 12.8 78 78 E 8 13 30.20 1023 10 16 N/A
4:52 am 04:52 Cloudy 62 16.7 55 12.8 78 78 E 5 7 30.18 1022 10 16 N/A
5:52 am 05:52 Cloudy 62 16.7 56 13.3 80 80 NE 6 9 30.19 1022 10 16 N/A
6:52 am 06:52 Cloudy 62 16.7 56 13.3 80 80 NE 8 13 30.20 1023 10 16 N/A
7:34 am 07:34 Cloudy 63 17.2 56 13.3 78 78 NE 8 13 30.21 1023 10 16 N/A
7:52 am 07:52 Cloudy 63 17.2 57 13.9 81 81 ENE 8 13 30.20 1023 10 16 N/A
8:52 am 08:52 Cloudy 64 17.8 58 14.4 81 81 NE 8 13 30.20 1023 10 16 N/A
9:42 am 09:42 Cloudy 65 18.3 60 15.6 84 84 NE 7 11 30.19 1022 10 16 N/A
9:52 am 09:52 Cloudy 65 18.3 60 15.6 84 84 NE 7 11 30.18 1022 10 16 N/A
10:52 am 10:52 Cloudy 68 20 62 16.7 81 81 E 8 13 30.16 1021 10 16 N/A
11:14 am 11:14 Mostly Cloudy 70 21.1 63 17.2 79 79 E 8 13 30.16 1021 10 16 N/A
11:52 am 11:52 Cloudy 70 21.1 63 17.2 79 79 ESE 5 7 30.16 1021 10 16 N/A
12:52 pm 12:52 Cloudy 73 22.8 64 17.8 74 74 SE 5 7 30.15 1021 10 16 N/A
1:52 pm 13:52 Cloudy 75 23.9 65 18.3 71 71 S 6 9 30.15 1021 10 16 N/A
2:52 pm 14:52 Cloudy 75 23.9 63 17.2 66 66 S 3 6 30.14 1021 10 16 N/A
3:52 pm 15:52 Cloudy 74 23.3 62 16.7 67 67 S 9 15 30.12 1020 10 16 N/A
4:52 pm 16:52 Mostly Cloudy 76 24.4 64 17.8 67 67 SE 12 19 30.09 1019 10 16 N/A
5:52 pm 17:52 Mostly Cloudy 76 24.4 62 16.7 62 62 SE 10 17 30.07 1018 10 16 N/A
6:52 pm 18:52 Mostly Cloudy 74 23.3 62 16.7 67 67 SE 10 17 30.07 1018 10 16 N/A
7:52 pm 19:52 Mostly Cloudy 73 22.8 61 16.1 66 66 SE 8 13 30.08 1019 10 16 N/A
8:52 pm 20:52 Partly Cloudy 72 22.2 60 15.6 66 66 SSE 10 17 30.08 1019 10 16 N/A
9:52 pm 21:52 Partly Cloudy 70 21.1 60 15.6 71 71 SSE 8 13 30.09 1019 10 16 N/A
10:52 pm 22:52 Mostly Cloudy 69 20.6 59 15 70 70 S 10 17 30.09 1019 10 16 N/A
11:52 pm 23:52 Partly Cloudy 68 20 60 15.6 76 76 S 10 17 30.09 1019 10 16 N/A

Powered by AerisWeather